Regional Weather Roundup
Issued by NWS

Home | Current Version | Previous Version | Graphics & Text | Print | Product List | Glossary On
Versions: 1 2 3 4 5 6 7 8 9 10 11 12 13 14 15 16 17 18 19 20 21 22 23 24 25 26 27 28 29 30 31 32 33 34 35 36 37 38 39 40 41 42 43 44 45 46 47 48 49 50
868
ASUS44 KLIX 272101
RWRLA
LOUISIANA WEATHER ROUNDUP
NATIONAL WEATHER SERVICE NEW ORLEANS LA
300 PM CST THU NOV 27 2014

NOTE: "FAIR" INDICATES FEW OR NO CLOUDS BELOW 12,000 FEET WITH NO
      SIGNIFICANT WEATHER AND/OR OBSTRUCTIONS TO VISIBILITY.
      SKY/WX - SKY CONDITION AND SIGNIFICANT WEATHER.
      TMP - AIR TEMPERATURE.    DP   - DEWPOINT TEMPERATURE.
      RH  - RELATIVE HUMIDITY.  PRES - PRESSURE.
      HX  - HEAT INDEX.         WCI  - WIND CHILL INDEX.

*  THESE STATIONS ARE NOT NWS OR FAA STATIONS AND ARE NOT UNDER
   NWS QUALITY CONTROL.

LAZ040-048-061>063-065-066-069-272200-
SOUTHEAST LOUISIANA

CITY           SKY/WX    TMP DP  RH WIND       PRES   REMARKS
N.O. AUDUBON   NOT AVBL
N.O. INTL ARPT MOSUNNY   61  32  33 N12       30.38S
N.O. LAKEFRONT SUNNY     61  40  45 NW9       30.39S
N.O. DOWNTOWN* FAIR      59  30  33 N6        30.39S
SLIDELL        SUNNY     61  27  27 N13       30.38R
BATON ROUGE    SUNNY     61  28  28 N10G17    30.40R
BOOTHVILLE     SUNNY     57  40  52 N9        30.37S
BELLE CHASSE   SUNNY     61  27  27 N10       30.37S
BOGALUSA*        N/A     60  28  29 N12       30.41R
NEW ROADS*     NOT AVBL
GONZALES*      NOT AVBL
HAMMOND*       NOT AVBL
HOUMA*         SUNNY     64  32  29 N10       30.37R
PORT FOURCHON* CLEAR     61  32  33 N12G20    30.40R

$$

LAZ041-044-053-054-272200-
SOUTHWEST LOUISIANA

CITY           SKY/WX    TMP DP  RH WIND       PRES   REMARKS
LAKE CHARLES   SUNNY     64  29  26 NE8       30.40F
LAFAYETTE      SUNNY     60  31  33 N15       30.41R
PATTERSON      SUNNY     64  30  27 NE13        N/A
SALT POINT       N/A     68  32  26 VRB5      30.37R
NEW IBERIA     SUNNY     63  30  28 NE14      30.40S
CHENAULT AIRPK SUNNY     63  30  29 N6        30.41S

$$

LAZ027-028-272200-
CENTRAL LOUISIANA

CITY           SKY/WX    TMP DP  RH WIND       PRES   REMARKS
FORT POLK      SUNNY     59  29  31 VRB5      30.42S
ALEXANDRIA INT SUNNY     59  28  30 NE6       30.42S
ALEXANDRIA     SUNNY     58  28  32 VRB7      30.44S

$$

LAZ001-002-272200-
NORTHWEST LOUISIANA

CITY           SKY/WX    TMP DP  RH WIND       PRES   REMARKS
SHREVEPORT     SUNNY     57  25  29 VRB5      30.44F
BARKSDALE AFB  SUNNY     57  25  29 NE6       30.44F
DTN SHREVEPORT SUNNY     56  25  30 N5        30.45F

$$

LAZ014-016-272200-
NORTHEAST LOUISIANA

CITY           SKY/WX    TMP DP  RH WIND       PRES   REMARKS
MONROE         SUNNY     53  31  42 NE6       30.48S
TALLULAH       SUNNY     50  31  48 N12       30.47F

$$




USA.gov is the U.S. government's official web portal to all federal, state and local government web resources and services.